Temperature
16 17 17 17 17 17 17 17 17 17 17 17 17 17 17 17 17 17 16 16 16 16 16 16 16 16 16 16 16 16 16 16 15 15 15 15 15 15 15 15 15 15 15
16 16 17 17 17 17 17 17 17 17 17 17 17 17 17 16 16 16 16 16 16 16 16 16 16 16 16 16 16 15 15 15 15 15 15 15 15 15 15 15 15 15 15
16 16 16 17 17 16 16 16 16 17 17 17 17 17 16 16 16 16 16 16 16 16 16 16 16 16 16 15 15 15 15 15 15 15 15 15 15 15 15 15 15 15 15
16 16 16 16 16 16 16 16 16 16 16 16 16 16 16 16 16 16 16 16 16 16 16 16 16 15 15 15 15 15 15 15 15 15 14 14 14 14 15 15 15 15 15
15 16 16 16 16 16 16 16 16 16 16 16 16 16 16 16 16 16 16 16 16 16 16 16 16 16 15 15 15 15 15 15 15 14 14 14 14 14 15 15 15 15 15
15 15 16 16 16 16 16 16 16 16 16 16 16 16 16 16 16 16 16 16 16 16 16 16 16 16 15 15 15 15 15 15 14 14 14 14 14 14 14 14 14 14 14
15 15 15 15 16 16 16 16 16 16 16 16 16 16 16 16 16 16 16 16 16 16 16 16 15 15 15 15 15 15 15 15 14 14 14 14 14 14 14 14 14 14 14
15 15 15 15 15 15 15 16 16 16 16 16 16 16 16 16 16 16 16 16 16 16 15 15 15 15 15 15 15 15 15 15 14 14 14 14 14 14 14 14 14 14 14
14 14 15 15 15 15 15 15 15 15 15 15 15 15 15 15 15 15 15 15 16 15 15 15 15 15 15 15 15 15 15 15 14 14 14 14 14 14 14 14 14 14 14
14 14 14 15 15 15 15 15 15 15 15 15 15 15 15 15 15 15 15 15 15 15 15 15 15 15 15 15 15 15 15 15 14 14 14 14 14 14 14 15 14 14 14
14 14 14 14 15 15 15 15 15 15 15 15 15 15 15 15 15 15 15 15 15 15 15 15 15 15 15 15 15 15 14 14 14 14 14 14 14 14 14 15 14 14 14
13 14 14 14 14 14 14 14 15 15 15 15 15 14 14 14 14 14 14 15 15 15 15 15 15 15 15 15 14 14 14 14 14 14 14 14 14 14 14 14 14 14 14
13 13 14 14 14 14 14 14 14 14 14 14 14 14 14 14 14 14 14 14 14 14 14 14 14 14 14 14 14 14 14 14 14 14 14 14 14 14 14 14 14 14 14
13 13 13 14 14 14 14 14 14 14 14 14 14 14 14 14 14 14 14 14 14 14 14 14 14 14 14 14 14 14 14 14 14 14 14 14 14 14 14 14 14 14 14
12 13 13 13 13 13 13 14 13 13 13 13 13 13 13 13 13 13 13 13 13 13 13 13 13 13 13 13 13 13 13 13 13 13 13 14 14 14 14 14 14 14 14
12 12 12 13 13 13 13 13 13 13 13 13 13 13 13 13 13 13 13 13 13 13 13 13 13 13 13 13 13 13 13 13 13 13 13 13 13 14 14 14 14 14 14
11 12 12 12 13 13 13 13 13 13 12 12 12 12 12 13 13 13 12 12 12 12 12 12 12 12 12 13 13 13 13 13 13 13 13 13 13 13 13 13 14 14 14
11 11 12 12 12 12 12 12 12 12 12 12 12 12 12 12 12 12 12 12 12 12 12 12 12 12 12 12 12 12 12 12 13 13 13 13 13 13 13 13 13 13 13
11 11 11 11 11 12 12 12 12 12 11 11 11 11 11 11 11 11 12 12 12 11 11 11 11 11 11 11 12 12 12 12 12 12 12 12 12 12 12 13 13 13 13
10 10 11 11 11 11 11 11 11 11 11 11 11 11 11 11 11 11 11 11 11 11 11 11 11 11 11 11 11 11 11 12 12 12 12 12 12 12 12 12 12 12 12
10 10 10 10 11 11 11 11 11 11 10 10 10 10 10 10 10 10 10 10 10 10 10 10 10 10 10 10 10 10 11 11 11 11 11 11 11 12 12 12 12 12 12
10 10 10 10 10 10 10 10 10 10 10 9 9 9 9 10 10 10 10 10 10 9 9 9 9 9 9 9 9 9 9 10 11 11 11 11 11 11 11 11 11 11 11
9 9 9 10 10 10 10 9 9 9 9 9 9 9 9 9 9 9 9 9 9 9 9 9 9 9 9 9 8 8 8 8 9 10 10 10 11 10 10 11 10 10 10
9 9 9 9 9 9 9 9 9 9 8 8 8 8 8 8 8 9 9 9 8 8 8 8 8 8 8 8 8 8 8 7 7 8 9 9 9 10 10 10 10 10 10
9 9 9 9 9 9 9 9 8 8 8 8 8 8 8 8 8 8 8 8 8 8 8 8 8 8 7 7 7 7 7 7 7 7 7 8 8 9 9 9 9 9 9
8 9 9 8 8 9 8 8 8 8 8 8 8 8 8 7 7 7 8 8 8 7 7 7 7 7 7 7 7 7 6 6 6 6 6 7 7 8 8 8 8 8 8
Wind_Speed
7 10 11 10 10 10 10 10 10 10 9 9 8 7 7 7 6 6 6 6 6 6 6 6 7 7 7 8 9 9 9 9 10 10 10 10 10 9 9 8 8 9 10
8 12 12 11 10 10 10 10 10 10 9 8 8 7 7 6 6 5 5 4 5 5 5 5 5 6 7 7 8 8 7 7 7 7 8 8 8 8 9 10 9 8 9
9 12 11 11 10 10 10 10 9 9 8 7 7 7 6 6 5 4 4 4 4 4 4 4 4 5 6 7 7 6 5 4 3 2 3 5 8 8 8 8 8 8 8
11 12 11 11 10 10 9 9 9 8 7 7 6 6 6 5 5 4 4 3 3 3 3 4 4 4 5 6 5 4 3 1 1 3 2 4 7 7 7 6 6 6 7
11 12 12 12 11 10 9 8 8 7 6 6 6 5 5 4 4 3 3 3 4 3 3 3 3 3 4 4 4 2 1 2 4 5 2 4 8 8 7 6 5 5 5
10 13 12 12 11 10 10 8 7 7 6 5 5 4 4 4 4 4 4 4 3 3 2 2 2 3 4 4 3 3 3 4 7 6 2 4 7 8 6 5 4 4 3
8 11 12 12 11 10 9 8 8 7 6 5 4 3 3 3 3 3 3 3 2 2 2 1 1 2 3 4 4 4 5 6 7 6 1 4 7 7 6 4 3 2 2
8 9 10 11 11 10 9 8 7 6 5 4 3 2 2 2 2 2 2 1 1 1 1 1 2 3 3 4 5 6 7 7 7 6 3 4 7 7 5 5 4 3 3
9 8 8 8 9 9 8 8 6 5 4 3 2 1 1 2 2 2 1 1 1 2 2 2 3 3 4 5 5 6 8 9 9 8 5 5 9 8 6 6 5 5 4
8 7 8 8 8 7 6 6 5 4 3 2 1 1 0 2 4 4 3 3 3 3 4 4 4 5 6 6 7 8 9 10 11 9 6 6 9 9 8 8 7 7 6
8 6 7 7 7 7 5 4 3 2 2 2 1 1 1 2 3 4 4 4 4 5 5 6 6 7 7 8 10 10 10 10 10 9 7 8 10 10 9 9 9 9 8
8 7 7 7 7 7 5 5 4 3 2 2 3 3 3 3 3 3 3 5 6 6 7 7 8 8 8 8 10 11 10 11 10 8 7 10 10 10 10 11 11 11 11
7 7 6 6 7 7 6 5 4 4 4 4 5 5 5 5 4 3 2 2 4 5 5 7 8 8 8 8 7 8 11 10 8 8 8 10 11 12 12 12 12 13 13
7 7 6 6 6 6 6 5 5 5 4 4 6 6 6 4 4 4 3 2 3 4 4 4 5 7 8 8 8 8 9 8 8 8 8 11 12 12 13 13 14 14 15
7 6 6 6 6 6 5 4 5 5 4 5 5 6 7 4 3 4 4 4 4 5 4 4 4 5 5 6 7 7 6 7 8 8 9 11 13 13 14 15 15 16 16
6 6 5 5 6 6 5 4 4 5 5 5 5 5 6 6 5 3 3 3 4 5 5 5 5 4 4 4 4 6 6 7 8 8 8 11 14 15 15 15 16 17 18
5 5 5 5 5 5 5 5 4 5 5 4 4 6 6 7 6 5 3 3 4 6 6 5 5 5 4 4 5 5 5 6 7 8 9 9 11 15 17 16 17 18 18
5 5 5 5 5 5 5 5 4 5 5 5 6 6 7 8 8 6 4 3 6 6 5 3 3 3 4 4 5 5 5 5 6 7 8 8 8 9 13 18 18 18 19
4 4 4 4 5 5 4 4 4 4 5 6 7 7 8 9 9 7 4 5 7 5 3 4 4 3 4 5 6 5 5 5 5 6 6 7 9 9 9 12 17 18 19
4 3 3 4 4 4 3 3 3 4 4 6 6 8 9 9 9 8 5 6 7 4 3 4 5 4 4 5 6 6 6 6 5 5 6 6 6 7 7 8 9 11 15
4 3 3 3 4 4 3 3 3 3 4 3 4 7 9 9 9 7 5 6 5 4 4 5 4 5 4 4 4 5 6 6 5 5 4 4 4 4 4 5 5 6 7
4 3 3 3 3 3 3 2 1 2 2 1 3 5 7 8 8 7 5 4 5 4 5 5 4 3 4 3 3 3 4 4 3 4 3 3 3 3 3 4 5 5 5
4 3 2 2 2 2 3 2 3 2 2 2 3 3 5 7 7 7 6 5 4 4 4 5 5 4 4 4 2 2 2 3 4 3 3 3 4 3 3 3 4 5 6
5 4 2 1 1 1 1 2 2 2 2 2 2 2 3 5 6 7 7 6 5 4 4 5 5 4 4 4 3 2 3 3 3 4 3 3 4 4 4 4 3 4 5
5 4 2 2 1 1 0 1 1 2 2 2 3 3 3 3 5 6 7 6 5 4 5 5 5 5 4 4 3 3 4 4 4 4 6 4 4 3 4 4 3 3 5
5 4 3 2 2 1 1 1 1 2 2 3 3 3 3 2 3 5 6 5 5 4 5 5 5 5 4 4 3 3 3 3 3 4 5 6 5 4 4 3 3 3 4
Wind_Direction
106 113 116 116 114 111 111 111 108 104 102 104 104 103 105 106 106 101 97 93 90 87 86 87 89 86 85 85 85 83 82 81 82 82 80 77 77 75 71 67 73 75 80
112 114 116 116 115 111 109 110 106 105 104 103 101 99 96 98 103 107 104 101 100 98 90 94 98 96 93 92 92 92 91 93 93 97 99 91 83 77 73 68 66 82 85
102 107 110 111 112 109 109 112 110 109 106 102 99 96 93 90 92 97 100 104 111 113 98 98 101 104 101 101 99 99 98 105 107 123 144 128 109 92 86 79 76 84 85
95 100 103 102 105 106 107 112 113 112 111 106 100 94 91 86 83 88 91 90 105 120 114 108 108 110 112 110 110 110 110 139 270 279 241 150 121 110 102 94 87 85 86
91 95 95 96 95 100 103 106 112 112 113 110 105 97 92 86 81 77 82 92 91 102 113 122 128 134 136 132 132 139 192 269 289 290 293 99 111 122 114 106 96 91 88
89 93 95 94 91 93 95 97 105 108 110 109 106 101 96 88 84 74 71 80 91 101 115 124 141 169 173 170 177 203 245 273 289 282 239 138 124 131 129 124 113 109 107
82 90 98 96 91 93 93 91 94 100 104 106 107 110 114 101 93 86 76 75 87 109 125 160 181 189 193 200 213 231 251 269 278 275 262 137 135 144 147 149 148 140 146
81 87 99 98 96 97 98 93 92 94 98 102 104 108 133 128 114 106 88 86 110 157 192 210 230 226 224 229 236 244 253 263 278 278 238 157 153 160 171 178 184 189 187
68 69 72 83 91 95 98 98 94 94 95 95 92 93 166 177 177 172 158 199 231 239 236 231 236 234 237 244 248 251 255 262 273 275 254 182 171 177 190 200 208 213 218
68 62 55 59 58 66 80 93 92 95 98 105 92 12 262 225 224 216 212 227 237 248 246 239 240 241 244 244 246 251 255 260 259 259 248 203 185 190 202 212 218 223 226
67 58 52 50 44 40 45 62 71 91 76 62 342 308 270 264 251 234 225 223 231 244 248 243 242 245 246 246 245 247 250 253 252 246 231 203 193 200 211 218 224 229 231
64 54 45 40 32 28 30 37 33 38 41 17 4 360 325 311 302 287 244 226 237 247 251 247 247 248 246 243 244 240 243 249 249 247 223 204 203 211 221 225 229 234 236
70 56 44 37 32 23 15 24 19 19 28 16 14 360 341 336 336 343 328 248 252 254 256 257 247 247 245 243 239 229 237 246 246 248 230 213 213 219 226 231 234 237 240
71 59 45 37 34 26 19 12 15 16 23 19 12 1 352 351 348 344 333 323 290 277 270 267 254 252 250 249 247 241 240 242 247 247 233 220 220 225 231 236 239 241 244
74 61 46 38 34 23 18 11 20 8 11 11 11 3 2 356 343 341 333 332 319 316 306 289 279 277 270 262 254 251 249 248 250 245 236 223 222 226 234 240 244 245 246
68 59 43 39 30 24 21 13 11 5 1 4 4 0 2 354 343 339 327 326 324 321 313 307 297 297 289 286 279 272 265 260 258 255 246 230 225 227 233 241 247 249 250
65 55 41 40 30 22 18 6 7 1 1 4 2 3 6 360 350 344 331 322 324 326 326 318 307 304 298 295 289 281 273 268 264 257 253 242 230 229 233 240 247 250 252
73 58 39 32 26 23 14 355 354 1 5 6 9 12 8 2 355 346 337 326 333 335 330 313 302 304 301 300 295 289 285 279 273 270 263 253 241 234 234 237 242 248 252
75 67 54 37 26 16 360 345 355 5 12 11 11 15 10 4 357 348 342 341 343 342 327 319 318 309 300 300 293 284 280 276 276 274 270 263 256 247 240 240 241 244 248
91 76 65 45 30 10 357 351 7 20 14 16 15 12 7 3 359 354 347 345 344 336 331 331 321 318 305 303 301 294 282 273 270 265 266 267 269 262 258 255 247 246 248
111 86 68 45 33 23 11 5 7 11 357 5 13 15 7 1 357 356 354 350 347 338 331 330 324 320 316 318 311 304 286 270 264 265 269 273 282 288 293 282 273 267 261
126 105 82 53 33 29 20 357 335 324 322 342 4 4 2 358 356 355 355 347 341 337 339 338 335 322 316 333 319 311 309 304 307 295 291 286 292 303 295 289 280 274 275
134 115 90 72 46 29 8 345 333 333 330 354 355 354 357 356 358 356 354 350 340 340 336 333 330 325 314 311 314 301 305 295 318 296 301 302 306 306 297 289 285 283 278
139 131 133 115 78 45 3 339 335 344 340 332 328 330 351 358 356 355 356 351 343 339 337 331 335 319 314 308 307 294 280 294 294 304 303 310 315 314 314 315 308 308 302
134 139 151 159 147 116 3 329 329 330 317 313 322 337 347 351 358 0 359 354 347 341 339 335 331 323 313 303 303 306 298 299 284 281 293 304 311 312 315 314 320 335 328
142 149 168 183 183 170 203 260 293 300 309 317 323 330 331 337 351 359 355 351 345 341 337 332 327 324 322 316 313 310 302 296 300 292 289 302 297 295 306 311 322 342 351
Height
1522 1522 1524 1525 1527 1528 1530 1531 1533 1534 1535 1536 1537 1537 1538 1539 1539 1540 1540 1540 1540 1540 1541 1541 1541 1541 1542 1542 1542 1542 1543 1543 1543 1543 1543 1543 1543 1543 1543 1543 1543 1543 1543
1521 1522 1524 1526 1527 1529 1531 1532 1533 1535 1536 1537 1537 1538 1539 1539 1540 1540 1541 1541 1541 1541 1542 1542 1542 1542 1543 1543 1543 1543 1544 1544 1544 1544 1544 1544 1544 1544 1544 1545 1544 1544 1545
1521 1522 1524 1526 1528 1529 1531 1532 1534 1535 1536 1537 1538 1539 1539 1540 1540 1541 1541 1542 1542 1542 1542 1543 1543 1543 1543 1544 1544 1544 1544 1545 1545 1545 1545 1545 1545 1545 1545 1545 1545 1545 1545
1521 1522 1524 1526 1528 1530 1531 1533 1534 1535 1536 1537 1538 1539 1540 1540 1541 1541 1542 1542 1542 1543 1543 1543 1543 1543 1544 1544 1544 1545 1545 1545 1546 1546 1546 1546 1546 1546 1546 1546 1546 1546 1546
1521 1522 1524 1526 1528 1530 1532 1533 1534 1536 1537 1537 1538 1539 1540 1541 1541 1541 1542 1542 1543 1543 1543 1543 1543 1544 1544 1544 1544 1545 1545 1545 1546 1546 1547 1546 1546 1546 1546 1546 1546 1546 1546
1521 1523 1525 1526 1528 1530 1532 1533 1534 1535 1536 1537 1538 1539 1540 1540 1541 1542 1542 1542 1542 1543 1543 1543 1543 1543 1544 1544 1544 1545 1545 1545 1546 1546 1547 1546 1546 1546 1546 1546 1546 1546 1546
1521 1523 1525 1527 1528 1530 1531 1533 1534 1535 1536 1537 1538 1539 1540 1540 1541 1541 1542 1542 1542 1542 1543 1543 1543 1543 1543 1544 1544 1544 1545 1545 1545 1546 1546 1546 1546 1546 1546 1545 1546 1546 1546
1522 1523 1525 1527 1528 1530 1531 1532 1534 1535 1536 1537 1537 1538 1539 1540 1540 1541 1541 1541 1542 1542 1542 1542 1542 1543 1543 1543 1543 1543 1544 1544 1544 1545 1545 1545 1545 1545 1545 1545 1545 1545 1545
1522 1524 1525 1527 1528 1530 1531 1532 1533 1534 1535 1536 1537 1538 1538 1539 1539 1540 1540 1540 1540 1541 1541 1541 1541 1542 1542 1542 1542 1542 1543 1543 1543 1544 1544 1544 1544 1544 1544 1544 1544 1544 1544
1522 1524 1525 1527 1528 1529 1531 1532 1533 1534 1535 1535 1536 1537 1537 1538 1538 1538 1539 1539 1539 1539 1540 1540 1540 1540 1540 1540 1541 1541 1541 1542 1542 1542 1542 1543 1543 1543 1543 1543 1543 1543 1543
1523 1524 1525 1527 1528 1529 1530 1531 1532 1533 1534 1534 1535 1536 1536 1536 1537 1537 1537 1537 1537 1538 1538 1538 1538 1538 1538 1539 1539 1539 1539 1540 1540 1540 1541 1541 1541 1541 1541 1541 1542 1542 1542
1523 1524 1525 1526 1527 1528 1529 1530 1531 1532 1532 1533 1533 1534 1534 1535 1535 1535 1536 1536 1536 1536 1536 1536 1536 1536 1536 1536 1536 1537 1537 1537 1538 1538 1538 1539 1539 1539 1539 1539 1539 1540 1540
1523 1524 1525 1526 1527 1528 1528 1529 1530 1530 1531 1531 1532 1532 1533 1533 1533 1534 1534 1533 1533 1533 1533 1533 1533 1533 1533 1533 1534 1534 1534 1535 1535 1535 1536 1536 1536 1536 1537 1537 1537 1537 1537
1522 1524 1525 1525 1526 1527 1527 1528 1528 1529 1529 1530 1530 1531 1531 1531 1531 1531 1532 1531 1531 1531 1531 1531 1530 1530 1530 1530 1531 1531 1531 1532 1532 1532 1533 1533 1533 1533 1533 1534 1534 1534 1534
1523 1523 1524 1525 1525 1526 1526 1526 1527 1527 1528 1528 1528 1529 1529 1529 1529 1529 1529 1529 1529 1528 1528 1528 1528 1528 1527 1528 1528 1528 1528 1528 1529 1529 1529 1529 1529 1530 1530 1530 1530 1530 1530
1522 1523 1524 1524 1525 1525 1525 1525 1526 1526 1526 1526 1527 1527 1527 1527 1527 1527 1527 1526 1526 1526 1526 1525 1525 1525 1524 1524 1524 1524 1524 1525 1525 1525 1525 1525 1525 1525 1526 1526 1526 1526 1526
1522 1523 1523 1523 1524 1524 1524 1524 1524 1524 1524 1525 1525 1525 1525 1525 1525 1525 1524 1524 1524 1523 1523 1522 1522 1522 1521 1520 1520 1520 1520 1520 1521 1521 1521 1521 1521 1521 1521 1521 1521 1522 1522
1522 1522 1522 1523 1523 1522 1523 1523 1523 1523 1522 1523 1523 1523 1523 1522 1522 1522 1522 1521 1521 1520 1520 1519 1519 1518 1517 1517 1516 1516 1516 1516 1516 1516 1516 1516 1516 1516 1516 1516 1516 1516 1517
1521 1521 1521 1522 1522 1521 1521 1522 1521 1521 1521 1521 1521 1521 1520 1520 1520 1519 1519 1519 1518 1517 1517 1516 1515 1515 1514 1513 1512 1512 1511 1511 1511 1511 1511 1511 1511 1511 1511 1511 1511 1511 1511
1520 1520 1520 1520 1520 1520 1520 1520 1520 1519 1519 1519 1519 1519 1518 1518 1517 1517 1516 1516 1515 1515 1514 1513 1512 1512 1511 1509 1508 1507 1507 1506 1506 1506 1506 1506 1506 1506 1506 1506 1505 1505 1506
1519 1519 1519 1519 1519 1519 1519 1518 1518 1518 1518 1518 1517 1516 1516 1515 1515 1514 1514 1513 1513 1512 1511 1510 1509 1508 1507 1506 1505 1503 1502 1502 1502 1501 1501 1501 1501 1501 1501 1500 1500 1500 1500
1518 1518 1518 1518 1517 1517 1517 1517 1516 1516 1516 1516 1516 1515 1514 1514 1513 1512 1511 1511 1510 1509 1508 1507 1506 1505 1504 1504 1503 1501 1499 1498 1497 1497 1497 1497 1497 1497 1496 1496 1495 1495 1495
1516 1516 1517 1516 1516 1516 1516 1515 1515 1514 1514 1514 1513 1513 1512 1511 1510 1510 1509 1508 1507 1507 1505 1505 1504 1503 1502 1502 1501 1501 1499 1497 1495 1494 1494 1493 1493 1492 1491 1491 1490 1490 1490
1514 1515 1515 1515 1515 1515 1514 1514 1513 1513 1512 1512 1511 1510 1510 1509 1508 1507 1506 1505 1505 1504 1503 1502 1501 1500 1499 1498 1498 1498 1498 1497 1495 1491 1490 1490 1489 1488 1487 1486 1486 1485 1485
1512 1513 1513 1513 1513 1513 1512 1512 1511 1511 1510 1509 1509 1508 1507 1506 1505 1504 1503 1502 1502 1501 1500 1499 1498 1497 1496 1495 1495 1494 1494 1493 1492 1491 1487 1486 1485 1484 1483 1482 1481 1481 1480
1510 1511 1511 1511 1511 1511 1510 1510 1509 1509 1508 1507 1507 1506 1505 1504 1503 1502 1501 1500 1499 1498 1497 1496 1495 1495 1494 1493 1492 1491 1491 1490 1489 1488 1485 1482 1481 1480 1479 1479 1478 1477 1476